Météo par heure à Kytlym

Ce jour, 25 Juillet, Dimanche

Heure Température Précipitation Vent Pression Humidité
00:00 +8°C° 0 mm 2 m/s 722 mmHg 96%
01:00 +8°C° 0 mm 1 m/s 722 mmHg 96%
02:00 +8°C° 0 mm 1 m/s 722 mmHg 95%
03:00 +8°C° 0 mm 1 m/s 723 mmHg 94%
04:00 +7°C° 0 mm 1 m/s 723 mmHg 94%
05:00 +9°C° 0 mm 1 m/s 723 mmHg 88%
06:00 +9°C° 0 mm 2 m/s 724 mmHg 81%
07:00 +10°C° 0 mm 2 m/s 724 mmHg 75%
08:00 +11°C° 0 mm 3 m/s 725 mmHg 66%
09:00 +12°C° 0 mm 3 m/s 725 mmHg 56%
10:00 +13°C° 0 mm 4 m/s 725 mmHg 47%
11:00 +14°C° 0 mm 4 m/s 725 mmHg 47%
12:00 +14°C° 0 mm 4 m/s 726 mmHg 47%
13:00 +15°C° 0 mm 5 m/s 726 mmHg 46%
14:00 +14°C° 0 mm 4 m/s 726 mmHg 49%
15:00 +14°C° 0 mm 4 m/s 726 mmHg 51%
16:00 +13°C° 0 mm 4 m/s 727 mmHg 54%
17:00 +13°C° 0 mm 4 m/s 727 mmHg 56%
18:00 +13°C° 0 mm 3 m/s 727 mmHg 58%
19:00 +12°C° 0 mm 3 m/s 727 mmHg 60%
20:00 +12°C° 0 mm 2 m/s 727 mmHg 68%
21:00 +9°C° 0 mm 2 m/s 727 mmHg 76%
22:00 +7°C° 0 mm 2 m/s 727 mmHg 84%
23:00 +8°C° 0 mm 2 m/s 727 mmHg 83%

Demain, 26 Juillet, Lundi

Heure Température Précipitation Vent Pression Humidité
00:00 +9°C° 0 mm 1 m/s 727 mmHg 82%
01:00 +9°C° 0 mm 1 m/s 727 mmHg 82%
02:00 +9°C° 0 mm 1 m/s 727 mmHg 81%
03:00 +10°C° 0 mm 1 m/s 727 mmHg 80%
04:00 +10°C° 0 mm 1 m/s 727 mmHg 80%
05:00 +10°C° 0 mm 2 m/s 727 mmHg 74%
06:00 +12°C° 0 mm 2 m/s 727 mmHg 69%
07:00 +13°C° 0 mm 2 m/s 727 mmHg 64%
08:00 +13°C° 0 mm 3 m/s 727 mmHg 60%
09:00 +14°C° 0 mm 4 m/s 727 mmHg 55%
10:00 +15°C° 0 mm 5 m/s 727 mmHg 51%
11:00 +16°C° 0.1 mm 5 m/s 727 mmHg 52%
12:00 +17°C° 0.1 mm 4 m/s 727 mmHg 54%
13:00 +17°C° 0.1 mm 4 m/s 726 mmHg 55%
14:00 +15°C° 0.1 mm 4 m/s 726 mmHg 60%
15:00 +15°C° 0.1 mm 4 m/s 726 mmHg 64%
16:00 +14°C° 0.1 mm 4 m/s 726 mmHg 69%
17:00 +14°C° 0.1 mm 4 m/s 726 mmHg 73%
18:00 +13°C° 0.1 mm 3 m/s 726 mmHg 77%
19:00 +14°C° 0.1 mm 2 m/s 725 mmHg 82%
20:00 +13°C° 0.1 mm 2 m/s 725 mmHg 86%
21:00 +12°C° 0.1 mm 2 m/s 725 mmHg 90%
22:00 +10°C° 0.1 mm 2 m/s 725 mmHg 94%
23:00 +10°C° 0 mm 2 m/s 724 mmHg 95%

Après-demain, 27 Juillet, Mardi

Heure Température Précipitation Vent Pression Humidité
00:00 +10°C° 0 mm 2 m/s 724 mmHg 96%
01:00 +10°C° 0 mm 2 m/s 723 mmHg 96%
02:00 +10°C° 1 mm 2 m/s 723 mmHg 96%
03:00 +10°C° 1 mm 2 m/s 723 mmHg 96%
04:00 +10°C° 1 mm 2 m/s 723 mmHg 96%
05:00 +10°C° 0.2 mm 2 m/s 723 mmHg 94%
06:00 +10°C° 0.2 mm 2 m/s 723 mmHg 93%
07:00 +10°C° 0.2 mm 3 m/s 723 mmHg 91%
08:00 +11°C° 0 mm 3 m/s 723 mmHg 83%
09:00 +11°C° 0 mm 3 m/s 723 mmHg 75%
10:00 +12°C° 0 mm 4 m/s 723 mmHg 67%
11:00 +12°C° 0.1 mm 4 m/s 723 mmHg 68%
12:00 +12°C° 0.1 mm 4 m/s 723 mmHg 68%
13:00 +12°C° 0.1 mm 4 m/s 723 mmHg 68%
14:00 +12°C° 0 mm 3 m/s 723 mmHg 69%
15:00 +12°C° 0 mm 3 m/s 723 mmHg 70%
16:00 +12°C° 0 mm 3 m/s 723 mmHg 70%
17:00 +11°C° 0.1 mm 3 m/s 723 mmHg 73%
18:00 +11°C° 0.1 mm 3 m/s 723 mmHg 76%
19:00 +10°C° 0.1 mm 3 m/s 723 mmHg 78%
20:00 +9°C° 0 mm 2 m/s 723 mmHg 83%
21:00 +8°C° 0 mm 2 m/s 723 mmHg 88%
22:00 +6°C° 0 mm 2 m/s 723 mmHg 93%
23:00 +6°C° 0 mm 2 m/s 722 mmHg 92%

28 Juillet, Mercredi

Heure Température Précipitation Vent Pression Humidité
00:00 +7°C° 0 mm 2 m/s 722 mmHg 91%
01:00 +7°C° 0 mm 3 m/s 721 mmHg 89%
02:00 +7°C° 0.1 mm 3 m/s 721 mmHg 89%
03:00 +6°C° 0.1 mm 4 m/s 721 mmHg 88%
04:00 +6°C° 0.1 mm 4 m/s 720 mmHg 87%
05:00 +6°C° 0.6 mm 4 m/s 720 mmHg 90%
06:00 +7°C° 0.6 mm 3 m/s 720 mmHg 93%
07:00 +6°C° 0.6 mm 2 m/s 720 mmHg 96%
08:00 +7°C° 0.2 mm 3 m/s 720 mmHg 92%
09:00 +7°C° 0.2 mm 3 m/s 721 mmHg 88%
10:00 +7°C° 0.2 mm 3 m/s 721 mmHg 84%
11:00 +7°C° 0.1 mm 4 m/s 721 mmHg 76%
12:00 +8°C° 0.1 mm 4 m/s 721 mmHg 67%
13:00 +9°C° 0.1 mm 5 m/s 721 mmHg 59%
14:00 +9°C° 0 mm 5 m/s 722 mmHg 58%
15:00 +9°C° 0 mm 5 m/s 722 mmHg 57%
16:00 +9°C° 0 mm 5 m/s 722 mmHg 56%
17:00 +9°C° 0 mm 5 m/s 722 mmHg 59%
18:00 +8°C° 0 mm 4 m/s 722 mmHg 62%
19:00 +9°C° 0 mm 3 m/s 722 mmHg 65%
20:00 +7°C° 0 mm 3 m/s 722 mmHg 72%
21:00 +6°C° 0 mm 2 m/s 722 mmHg 80%
22:00 +5°C° 0 mm 1 m/s 722 mmHg 88%
23:00 +5°C° 0 mm 1 m/s 722 mmHg 86%

29 Juillet, Jeudi

Heure Température Précipitation Vent Pression Humidité
00:00 +5°C° 0 mm 1 m/s 721 mmHg 84%
01:00 +5°C° 0 mm 1 m/s 721 mmHg 82%
02:00 +6°C° 0.1 mm 1 m/s 721 mmHg 81%
03:00 +6°C° 0.1 mm 1 m/s 720 mmHg 80%
04:00 +7°C° 0.1 mm 1 m/s 720 mmHg 79%
05:00 +7°C° 0.4 mm 1 m/s 720 mmHg 84%
06:00 +7°C° 0.4 mm 1 m/s 719 mmHg 89%
07:00 +7°C° 0.4 mm 1 m/s 719 mmHg 94%
08:00 +7°C° 0.3 mm 1 m/s 719 mmHg 95%
09:00 +6°C° 0.3 mm 0 m/s 719 mmHg 95%
10:00 +6°C° 0.3 mm 0 m/s 719 mmHg 96%
11:00 +6°C° 0.2 mm 0 m/s 719 mmHg 96%
12:00 +7°C° 0.2 mm 0 m/s 719 mmHg 95%
13:00 +7°C° 0.2 mm 0 m/s 719 mmHg 95%
14:00 +7°C° 0.1 mm 0 m/s 719 mmHg 95%
15:00 +7°C° 0.1 mm 0 m/s 719 mmHg 94%
16:00 +8°C° 0.1 mm 0 m/s 719 mmHg 93%
17:00 +8°C° 0 mm 0 m/s 719 mmHg 91%
18:00 +9°C° 0 mm 0 m/s 719 mmHg 89%
19:00 +10°C° 0 mm 1 m/s 719 mmHg 87%
20:00 +9°C° 0 mm 1 m/s 719 mmHg 89%
21:00 +8°C° 0 mm 0 m/s 719 mmHg 91%
22:00 +7°C° 0 mm 0 m/s 719 mmHg 93%
23:00 +7°C° 0 mm 0 m/s 719 mmHg 93%

30 Juillet, Vendredi

Heure Température Précipitation Vent Pression Humidité
00:00 +7°C° 0 mm 0 m/s 719 mmHg 92%
01:00 +8°C° 0 mm 1 m/s 719 mmHg 92%
02:00 +7°C° 0 mm 1 m/s 719 mmHg 92%
03:00 +7°C° 0 mm 1 m/s 719 mmHg 93%
04:00 +6°C° 0 mm 1 m/s 719 mmHg 93%
05:00 +8°C° 0 mm 1 m/s 720 mmHg 88%
06:00 +9°C° 0 mm 1 m/s 720 mmHg 82%
07:00 +11°C° 0 mm 1 m/s 720 mmHg 77%
08:00 +12°C° 0 mm 1 m/s 720 mmHg 67%
09:00 +14°C° 0 mm 1 m/s 720 mmHg 57%
10:00 +15°C° 0 mm 2 m/s 720 mmHg 47%
11:00 +16°C° 0 mm 2 m/s 720 mmHg 45%
12:00 +17°C° 0 mm 2 m/s 720 mmHg 43%
13:00 +17°C° 0 mm 3 m/s 720 mmHg 41%
14:00 +17°C° 0 mm 3 m/s 720 mmHg 42%
15:00 +17°C° 0 mm 3 m/s 721 mmHg 43%
16:00 +17°C° 0 mm 4 m/s 721 mmHg 44%
17:00 +16°C° 0 mm 3 m/s 721 mmHg 49%
18:00 +14°C° 0 mm 3 m/s 721 mmHg 55%
19:00 +13°C° 0 mm 2 m/s 722 mmHg 60%
20:00 +10°C° 0 mm 2 m/s 722 mmHg 69%
21:00 +8°C° 0 mm 2 m/s 722 mmHg 78%
22:00 +7°C° 0 mm 1 m/s 723 mmHg 86%
23:00 +7°C° 0 mm 1 m/s 723 mmHg 87%
Voir plus

Nous avons besoin de votre consentement

Meteoprog et ses fournisseurs de services peuvent stocker et accéder à des données personnelles telles que des cookies, des identifiants d'appareils ou d'autres technologies similaires sur votre appareil et traiter ces données pour personnaliser le contenu et les publicités, ainsi que pour fournir des fonctionnalités de médias sociaux et analyser le trafic.

  • Stocker et/ou accéder à des informations sur votre appareil

    Des cookies, des identifiants d'appareils ou d'autres informations peuvent être stockés ou accessibles sur votre appareil aux fins indiquées ci-dessus.

  • Annonces et contenus personnalisés, mesure des annonces et des contenus, connaissance de l'audience et développement de produits

    Les annonces et le contenu peuvent être personnalisés en fonction d'un profil. D'autres données peuvent être ajoutées pour mieux personnaliser les annonces et le contenu. Les performances des publicités et du contenu peuvent être mesurées. Il est possible d'obtenir des informations sur le public qui a vu les publicités et le contenu. Ces données peuvent être utilisées pour développer ou améliorer l'expérience de l'utilisateur, les systèmes et les logiciels.

En cliquant sur "J'accepte", vous autorisez l'utilisation de cookies, des identifiants d'appareils, des balises web ou d'autres technologies similaires. Vos paramètres peuvent être modifiés dans le navigateur de votre appareil.

Dans certains cas, des intérêts légitimes peuvent être invoqués plutôt qu'un consentement. Vous pouvez en savoir plus à ce sujet dans notre Politique de confidentialité et de cookies.